Change the Weather History Date:

Thursday, June 27, 2013

  Actual Average (KVPZ) Record (KVPZ)
Temperature  
Mean Temperature 76 °F 72 °F  
Max Temperature 86 °F 83 °F 92 °F (2005)
Min Temperature 65 °F 62 °F 52 °F (2004)
Degree Days  
Heating Degree Days 0 0  
Month to date heating degree days 41  
Since 1 June heating degree days 41  
Since 1 July heating degree days 6320  
Cooling Degree Days 10 7  
Month to date cooling degree days 141  
Year to date cooling degree days 188  
Since 1 June cooling degree days 141  
Growing Degree Days 26 (Base 50)    
Moisture  
Dew Point 66 °F    
Average Humidity 80    
Maximum Humidity 100    
Minimum Humidity 51    
Precipitation  
Precipitation 0.00 in 0.14 in 0.89 in (1999)
Month to date precipitation 3.52  
Year to date precipitation 16.50  
Sea Level Pressure  
Sea Level Pressure 29.76 in    
Wind  
Wind Speed 4 mph (NW)    
Max Wind Speed 14 mph    
Max Gust Speed 23 mph    
Visibility 9 miles    
Events Fog , Rain , Thunderstorm    
T = Trace of Precipitation, MM = Missing Value Source: NWS Daily Summary

Daily Weather History Graph

Daily Weather History Graph

Search for Another Location

Airport or City:

Trip Planner

Search our weather history database for the weather conditions in past years. The results will help you decide how hot, cold, wet, or windy it might be!

Date:

Astronomy

Jun. 27, 2013 Rise Set
Actual Time 5:14 AM CDT 8:25 PM CDT
Civil Twilight 4:40 AM CDT 8:59 PM CDT
Nautical Twilight 3:57 AM CDT 9:42 PM CDT
Astronomical Twilight 3:04 AM CDT 10:34 PM CDT
Moon 11:17 PM CDT (6/27) 10:19 AM CDT (6/27)
Length of Visible Light 16h 18m
Length of Day
15h 10m
Waning Gibbous, 76% of the Moon is Illuminated
Jun 27
Waning Gibbous
Jun 29
Last Quarter
Jul 8
New
Jul 15
First Quarter
Jul 22
Full

Hourly Weather History & Observations

Time (CDT) Temp. Heat Index Dew Point Humidity Pressure Visibility Wind Dir Wind Speed Gust Speed Precip Events Conditions
12:15 AM 70.0 °F - 70.0 °F 100% 29.78 in 10.0 mi Calm Calm - N/A   Overcast
12:35 AM 70.0 °F - 70.0 °F 100% 29.78 in 10.0 mi Calm Calm - N/A   Overcast
12:55 AM 70.2 °F - 70.2 °F 100% 29.78 in 10.0 mi NW 3.5 mph - N/A   Overcast
1:15 AM 70.0 °F - 69.4 °F 98% 29.77 in 10.0 mi NW 4.6 mph - N/A   Mostly Cloudy
1:35 AM 69.3 °F - 68.7 °F 98% 29.76 in 10.0 mi NW 5.8 mph - N/A   Scattered Clouds
1:55 AM 68.5 °F - 67.5 °F 96% 29.76 in 10.0 mi NW 3.5 mph - N/A   Scattered Clouds
2:15 AM 68.0 °F - 67.1 °F 97% 29.76 in 10.0 mi NW 4.6 mph - N/A   Clear
2:35 AM 67.3 °F - 66.6 °F 98% 29.76 in 10.0 mi Calm Calm - N/A   Clear
2:55 AM 66.2 °F - 66.0 °F 99% 29.76 in 7.0 mi NNW 3.5 mph - N/A   Clear
3:15 AM 65.5 °F - 65.5 °F 100% 29.76 in 5.0 mi NNW 4.6 mph - N/A   Clear
3:35 AM 65.7 °F - 65.7 °F 100% 29.76 in 4.0 mi NNW 3.5 mph - N/A   Clear
3:55 AM 65.3 °F - 65.3 °F 100% 29.77 in 2.5 mi NNW 4.6 mph - N/A   Scattered Clouds
4:15 AM 65.3 °F - 65.3 °F 100% 29.79 in 2.5 mi NW 4.6 mph - N/A   Overcast
4:35 AM 65.5 °F - 65.5 °F 100% 29.78 in 1.2 mi NW 4.6 mph - N/A   Overcast
4:55 AM 65.7 °F - 65.7 °F 100% 29.78 in 0.5 mi NNW 5.8 mph - N/A Fog Fog
5:15 AM 65.8 °F - 65.8 °F 100% 29.78 in 0.5 mi NNW 3.5 mph - N/A Fog Fog
5:35 AM 66.0 °F - 66.0 °F 100% 29.78 in 1.2 mi North 6.9 mph - N/A   Overcast
5:55 AM 65.5 °F - 65.5 °F 100% 29.79 in 5.0 mi NNW 3.5 mph - N/A   Mostly Cloudy
6:15 AM 66.2 °F - 66.2 °F 100% 29.80 in 5.0 mi Calm Calm - N/A   Scattered Clouds
6:35 AM 66.6 °F - 66.6 °F 100% 29.79 in 7.0 mi NW 3.5 mph - N/A   Clear
6:55 AM 68.0 °F - 68.0 °F 100% 29.79 in 7.0 mi NW 3.5 mph - N/A   Clear
7:15 AM 68.9 °F - 68.0 °F 97% 29.79 in 10.0 mi WNW 3.5 mph - N/A   Clear
7:35 AM 69.1 °F - 67.8 °F 96% 29.79 in 10.0 mi NW 4.6 mph - N/A   Scattered Clouds
7:55 AM 69.1 °F - 67.6 °F 95% 29.79 in 10.0 mi WNW 4.6 mph - N/A   Clear
8:15 AM 69.8 °F - 67.5 °F 92% 29.79 in 10.0 mi NNW 3.5 mph - N/A   Clear
8:35 AM 71.1 °F - 67.6 °F 89% 29.80 in 10.0 mi NW 8.1 mph - N/A   Clear
8:55 AM 71.4 °F - 68.5 °F 91% 29.80 in 10.0 mi WNW 5.8 mph - N/A   Scattered Clouds
9:15 AM 72.3 °F - 67.8 °F 86% 29.80 in 10.0 mi WNW 5.8 mph - N/A   Scattered Clouds
9:35 AM 72.9 °F - 68.0 °F 85% 29.80 in 10.0 mi WNW 4.6 mph - N/A   Clear
9:55 AM 73.9 °F - 68.7 °F 84% 29.80 in 10.0 mi WNW 4.6 mph - N/A   Clear
10:15 AM 75.0 °F - 68.4 °F 80% 29.81 in 10.0 mi NW 3.5 mph - N/A   Clear
10:35 AM 75.9 °F - 68.9 °F 79% 29.80 in 10.0 mi NW 9.2 mph - N/A   Clear
10:55 AM 77.0 °F - 68.2 °F 74% 29.80 in 10.0 mi NW 6.9 mph - N/A   Clear
11:15 AM 77.9 °F - 68.2 °F 72% 29.81 in 10.0 mi WNW 5.8 mph - N/A   Scattered Clouds
11:35 AM 78.1 °F - 66.4 °F 67% 29.80 in 10.0 mi WNW 4.6 mph - N/A   Overcast
11:55 AM 79.2 °F - 66.7 °F 66% 29.80 in 10.0 mi NNW 8.1 mph - N/A   Mostly Cloudy
12:15 PM 79.0 °F - 66.9 °F 66% 29.80 in 10.0 mi NW 6.9 mph - N/A   Scattered Clouds
12:35 PM 79.9 °F - 67.8 °F 66% 29.79 in 10.0 mi NW 6.9 mph - N/A   Scattered Clouds
12:55 PM 80.4 °F 83.5 °F 69.3 °F 69% 29.80 in 10.0 mi NW 4.6 mph - N/A   Mostly Cloudy
1:15 PM 81.5 °F 84.8 °F 69.1 °F 66% 29.80 in 10.0 mi NW 5.8 mph - N/A   Mostly Cloudy
1:35 PM 82.4 °F 85.8 °F 68.9 °F 64% 29.79 in 10.0 mi WNW 6.9 mph - N/A   Scattered Clouds
1:55 PM 83.5 °F 86.4 °F 67.6 °F 59% 29.79 in 10.0 mi WNW 11.5 mph 18.4 mph N/A   Scattered Clouds
2:15 PM 84.2 °F 87.3 °F 67.8 °F 58% 29.79 in 10.0 mi NW 11.5 mph 23.0 mph N/A   Clear
2:35 PM 84.7 °F 87.6 °F 67.5 °F 56% 29.79 in 10.0 mi NW 11.5 mph 23.0 mph N/A   Clear
2:55 PM 84.2 °F 87.1 °F 67.3 °F 57% 29.78 in 10.0 mi WNW 8.1 mph - N/A   Clear
3:15 PM 84.4 °F 87.1 °F 67.1 °F 56% 29.77 in 10.0 mi WNW 8.1 mph - N/A   Clear
3:35 PM 84.7 °F 88.2 °F 68.4 °F 58% 29.76 in 10.0 mi WNW 6.9 mph - N/A   Clear
3:55 PM 85.1 °F 88.2 °F 67.6 °F 56% 29.76 in 10.0 mi West 5.8 mph - N/A   Clear
4:15 PM 85.3 °F 87.9 °F 67.1 °F 54% 29.75 in 10.0 mi WNW 8.1 mph 16.1 mph N/A   Clear
4:35 PM 85.5 °F 87.6 °F 66.0 °F 52% 29.74 in 10.0 mi NW 8.1 mph - N/A   Clear
4:55 PM 85.6 °F 87.6 °F 65.5 °F 51% 29.72 in 10.0 mi West 8.1 mph - N/A   Clear
5:15 PM 86.4 °F 88.7 °F 66.2 °F 51% 29.71 in 10.0 mi West 8.1 mph - N/A   Clear
5:35 PM 85.1 °F 87.1 °F 65.7 °F 52% 29.72 in 10.0 mi West 6.9 mph - N/A   Scattered Clouds
5:55 PM 84.6 °F 86.8 °F 66.2 °F 54% 29.71 in 10.0 mi West 3.5 mph - N/A   Scattered Clouds
6:15 PM 82.2 °F 84.7 °F 67.1 °F 60% 29.71 in 10.0 mi West 4.6 mph - N/A   Mostly Cloudy
6:35 PM 81.1 °F 82.9 °F 65.3 °F 58% 29.72 in 10.0 mi North 13.8 mph 18.4 mph N/A   Mostly Cloudy
6:55 PM 76.6 °F - 64.2 °F 65% 29.72 in 10.0 mi North 12.7 mph 19.6 mph N/A   Scattered Clouds
7:15 PM 75.4 °F - 63.0 °F 65% 29.73 in 10.0 mi North 9.2 mph - N/A   Scattered Clouds
7:35 PM 74.3 °F - 62.4 °F 66% 29.72 in 10.0 mi NNW 5.8 mph - N/A   Scattered Clouds
7:55 PM 73.8 °F - 63.5 °F 70% 29.72 in 10.0 mi NNW 6.9 mph - N/A   Clear
8:15 PM 73.0 °F - 62.2 °F 69% 29.72 in 10.0 mi NNW 6.9 mph - N/A   Clear
8:35 PM 71.2 °F - 62.2 °F 73% 29.72 in 10.0 mi NNW 4.6 mph - N/A   Clear
8:55 PM 70.9 °F - 62.6 °F 75% 29.72 in 10.0 mi North 5.8 mph - N/A   Clear
9:15 PM 70.9 °F - 62.6 °F 75% 29.72 in 10.0 mi North 3.5 mph - N/A   Scattered Clouds
9:35 PM 69.8 °F - 63.1 °F 79% 29.72 in 10.0 mi Calm Calm - N/A   Scattered Clouds
9:55 PM 69.1 °F - 64.6 °F 86% 29.71 in 10.0 mi Calm Calm - N/A Thunderstorm Clear
10:15 PM 69.1 °F - 64.6 °F 86% 29.72 in 10.0 mi NW 3.5 mph - N/A   Mostly Cloudy
10:35 PM 70.3 °F - 63.1 °F 78% 29.72 in 10.0 mi NNW 5.8 mph 20.7 mph N/A Rain Rain
10:55 PM 69.3 °F - 63.7 °F 82% 29.71 in 10.0 mi Calm Calm - N/A   Scattered Clouds
11:15 PM 68.4 °F - 63.5 °F 84% 29.70 in 10.0 mi Calm Calm - N/A   Clear
11:35 PM 68.5 °F - 63.9 °F 85% 29.71 in 10.0 mi Calm Calm - N/A   Mostly Cloudy
11:55 PM 67.8 °F - 64.0 °F 88% 29.71 in 10.0 mi West 3.5 mph - N/A   Scattered Clouds